{"data":{"norad_id":69495,"epoch":"2026-09-19T23:59:00.606048Z","epoch_age_seconds":68680,"freshness":"FRESH","line1":"1 69495U 26131T   26262.99931257  .00011464  00000+0  35689-3 0  9998","line2":"2 69495  97.2842 283.9144 0001550  89.9697 270.1723 15.33443797 15562","mean_motion":15.33443797,"eccentricity":0.000155,"inclination_deg":97.2842,"raan_deg":283.9144,"arg_perigee_deg":89.9697,"mean_anomaly_deg":270.1723,"bstar":0.00035689,"rev_number":1556,"period_min":93.906278327069,"perigee_km":464.48598278026,"apogee_km":466.60752474392,"semimajor_km":6843.6837537621,"source":"CELESTRAK","updated_at":"2026-09-20T09:00:44.208710Z"}}